UAE7CN EGLL-OMDB

Flight info

Callsign UAE7CN
Flight time 6h 54m
Altitude 37000
Route DET L6 DVR UL9 KONAN UL607 KOK DCT REMBA DCT LIRSU DCT KRH DCT UTABA DCT MOMUK DCT GEDSO DCT VEKEN DCT MSR DCT PINDO DCT PAXIS/N0484F390 Y707 OBRAN L321 REXUM M872 BDB Y214 RAPMA DCT KUVSO DCT KATIT DCT PEKEM M628 RIGIL G783 ELUDA/N0469F350 G783 ASPED Q308 KIPOK Q568 IMPED
Aircraft A388/J-SADE2E3FGHIJ3J4J5M1RWXY/LB1D1

Departure

Time 2026-04-22 22:51
Airport London Heathrow Airport (EGLL)

Arrival

Time 2026-04-23 05:45
Airport Dubai International Airport (OMDB)
Time Latitude Longitude Altitude Speed Heading
2026-04-22 22:13 51.46822 -0.45832 91 ft 0 kts 360°
2026-04-22 22:39 51.46810 -0.45831 94 ft 4 kts 354°
2026-04-22 22:39 51.46785 -0.45822 92 ft 4 kts 334°
2026-04-22 22:39 51.46763 -0.45799 93 ft 4 kts 311°
2026-04-22 22:40 51.46750 -0.45763 93 ft 4 kts 279°
2026-04-22 22:40 51.46749 -0.45749 93 ft 1 kts 270°
2026-04-22 22:41 51.46749 -0.45774 94 ft 4 kts 271°
2026-04-22 22:42 51.46750 -0.45845 91 ft 9 kts 270°
2026-04-22 22:42 51.46748 -0.45967 94 ft 13 kts 266°
2026-04-22 22:42 51.46745 -0.46139 94 ft 18 kts 270°
2026-04-22 22:42 51.46748 -0.46354 95 ft 21 kts 272°
2026-04-22 22:43 51.46751 -0.46601 91 ft 23 kts 270°
2026-04-22 22:43 51.46747 -0.46874 95 ft 26 kts 268°
2026-04-22 22:43 51.46745 -0.47170 94 ft 27 kts 271°
2026-04-22 22:43 51.46744 -0.47480 94 ft 28 kts 268°
2026-04-22 22:44 51.46742 -0.47799 91 ft 29 kts 270°
2026-04-22 22:44 51.46743 -0.48122 91 ft 29 kts 270°
2026-04-22 22:44 51.46744 -0.48449 93 ft 29 kts 269°
2026-04-22 22:44 51.46742 -0.48665 91 ft 12 kts 269°
2026-04-22 22:45 51.46710 -0.48746 93 ft 8 kts 192°
2026-04-22 22:45 51.46641 -0.48749 92 ft 11 kts 183°
2026-04-22 22:45 51.46610 -0.48760 94 ft 0 kts 201°
2026-04-22 22:49 51.46602 -0.48765 95 ft 3 kts 201°
2026-04-22 22:49 51.46564 -0.48784 95 ft 8 kts 190°
2026-04-22 22:49 51.46516 -0.48770 96 ft 8 kts 148°
2026-04-22 22:50 51.46481 -0.48707 95 ft 7 kts 108°
2026-04-22 22:50 51.46477 -0.48533 94 ft 43 kts 89°
2026-04-22 22:50 51.46480 -0.47656 91 ft 111 kts 90°
2026-04-22 22:50 51.46486 -0.46168 95 ft 152 kts 89°
2026-04-22 22:51 51.46490 -0.44387 434 ft 160 kts 91°
2026-04-22 22:51 51.46497 -0.42634 1148 ft 156 kts 88°
2026-04-22 22:51 51.46388 -0.40873 1553 ft 167 kts 112°
2026-04-22 22:51 51.45647 -0.39413 2051 ft 169 kts 131°
2026-04-22 22:52 51.44832 -0.38144 2747 ft 157 kts 131°
2026-04-22 22:52 51.44178 -0.36818 3345 ft 154 kts 110°
2026-04-22 22:52 51.43913 -0.35053 3579 ft 172 kts 103°
2026-04-22 22:52 51.43658 -0.33083 3699 ft 189 kts 103°
2026-04-22 22:53 51.43377 -0.30945 3798 ft 202 kts 103°
2026-04-22 22:53 51.43059 -0.28608 3976 ft 226 kts 104°
2026-04-22 22:53 51.42705 -0.26049 4318 ft 244 kts 104°
2026-04-22 22:53 51.42335 -0.23386 5015 ft 250 kts 103°
2026-04-22 22:54 51.41952 -0.20631 5759 ft 255 kts 103°
2026-04-22 22:54 51.41564 -0.17855 6571 ft 257 kts 104°
2026-04-22 22:54 51.41170 -0.15045 7303 ft 260 kts 104°
2026-04-22 22:54 51.40769 -0.12201 8055 ft 264 kts 104°
2026-04-22 22:55 51.40363 -0.09318 8816 ft 266 kts 104°
2026-04-22 22:55 51.39951 -0.06403 9576 ft 270 kts 104°
2026-04-22 22:55 51.39107 -0.00446 10773 ft 287 kts 104°
2026-04-22 22:56 51.38645 0.02788 10938 ft 307 kts 104°
2026-04-22 22:56 51.38156 0.06222 11167 ft 324 kts 104°
2026-04-22 22:56 51.37653 0.09760 11776 ft 327 kts 104°
2026-04-22 22:56 51.37144 0.13323 12419 ft 330 kts 104°
2026-04-22 22:57 51.36637 0.16869 13055 ft 332 kts 104°
2026-04-22 22:57 51.36118 0.20490 13699 ft 335 kts 104°
2026-04-22 22:57 51.35592 0.24140 14316 ft 338 kts 104°
2026-04-22 22:57 51.35061 0.27821 14852 ft 342 kts 104°
2026-04-22 22:58 51.34522 0.31544 15399 ft 345 kts 104°
2026-04-22 22:58 51.33978 0.35297 15939 ft 348 kts 104°
2026-04-22 22:58 51.33427 0.39088 16462 ft 352 kts 103°
2026-04-22 22:58 51.32868 0.42917 17026 ft 354 kts 103°
2026-04-22 22:59 51.32306 0.46767 17669 ft 358 kts 103°
2026-04-22 22:59 51.31735 0.50665 18198 ft 361 kts 103°
2026-04-22 22:59 51.31159 0.54587 18704 ft 364 kts 103°
2026-04-22 22:59 51.30576 0.58554 19138 ft 367 kts 102°
2026-04-22 23:00 51.29897 0.62500 19545 ft 371 kts 105°
2026-04-22 23:00 51.29158 0.66483 19949 ft 374 kts 105°
2026-04-22 23:00 51.28437 0.70444 20342 ft 378 kts 104°
2026-04-22 23:00 51.27700 0.74503 20722 ft 382 kts 104°
2026-04-22 23:01 51.26954 0.78589 21110 ft 385 kts 104°
2026-04-22 23:01 51.26197 0.82719 21482 ft 389 kts 104°
2026-04-22 23:01 51.25429 0.86890 21870 ft 392 kts 104°
2026-04-22 23:01 51.24653 0.91095 22241 ft 396 kts 104°
2026-04-22 23:02 51.23870 0.95327 22619 ft 399 kts 104°
2026-04-22 23:02 51.23086 0.99556 23261 ft 396 kts 104°
2026-04-22 23:02 51.22308 1.03731 23642 ft 399 kts 104°
2026-04-22 23:02 51.21513 1.07996 24026 ft 402 kts 103°
2026-04-22 23:03 51.20711 1.12295 24265 ft 407 kts 103°
2026-04-22 23:03 51.19899 1.16633 24557 ft 411 kts 104°
2026-04-22 23:03 51.19075 1.21027 24865 ft 414 kts 104°
2026-04-22 23:03 51.18244 1.25443 25155 ft 418 kts 104°
2026-04-22 23:04 51.17402 1.29906 25478 ft 422 kts 104°
2026-04-22 23:04 51.16528 1.34398 25775 ft 427 kts 107°
2026-04-22 23:04 51.15364 1.38779 26104 ft 433 kts 114°
2026-04-22 23:04 51.13948 1.43043 26425 ft 437 kts 114°
2026-04-22 23:05 51.12527 1.47341 26784 ft 441 kts 114°
2026-04-22 23:05 51.11104 1.51689 27125 ft 445 kts 114°
2026-04-22 23:05 51.09673 1.56082 27474 ft 449 kts 113°
2026-04-22 23:05 51.08227 1.60521 27820 ft 453 kts 113°
2026-04-22 23:06 51.06791 1.64925 28189 ft 457 kts 113°
2026-04-22 23:06 51.05318 1.69431 28546 ft 461 kts 113°
2026-04-22 23:06 51.03832 1.73970 28904 ft 465 kts 113°
2026-04-22 23:06 51.02325 1.78561 29272 ft 469 kts 113°
2026-04-22 23:07 51.00808 1.83178 29634 ft 474 kts 113°
2026-04-22 23:07 50.99276 1.87828 30008 ft 478 kts 113°
2026-04-22 23:07 50.97730 1.92505 30550 ft 478 kts 113°
2026-04-22 23:07 50.96179 1.97182 30931 ft 481 kts 113°
2026-04-22 23:08 50.94611 2.01905 31282 ft 484 kts 113°
2026-04-22 23:08 50.93036 2.06638 31648 ft 487 kts 114°
2026-04-22 23:08 50.91452 2.11386 32005 ft 489 kts 114°
2026-04-22 23:08 50.89854 2.16169 32356 ft 492 kts 114°
2026-04-22 23:09 50.88246 2.20973 32704 ft 495 kts 114°
2026-04-22 23:09 50.86649 2.25735 33035 ft 497 kts 114°
2026-04-22 23:09 50.85016 2.30595 33375 ft 501 kts 114°
2026-04-22 23:09 50.83371 2.35485 33677 ft 505 kts 114°
2026-04-22 23:10 50.81723 2.40367 34304 ft 501 kts 114°
2026-04-22 23:10 50.80071 2.45250 34547 ft 505 kts 115°
2026-04-22 23:10 50.78412 2.50152 34854 ft 508 kts 115°
2026-04-22 23:10 50.76740 2.55079 35258 ft 507 kts 115°
2026-04-22 23:11 50.75074 2.59978 35709 ft 506 kts 115°
2026-04-22 23:11 50.73405 2.64876 36148 ft 505 kts 115°
2026-04-22 23:11 50.71763 2.69686 36575 ft 504 kts 116°
2026-04-22 23:11 50.70101 2.74547 37001 ft 503 kts 116°
2026-04-22 23:12 50.68440 2.79395 37424 ft 502 kts 116°
2026-04-22 23:12 50.66788 2.84207 38006 ft 497 kts 116°
2026-04-22 23:12 50.65146 2.88980 38474 ft 495 kts 116°
2026-04-22 23:12 50.63500 2.93759 38855 ft 495 kts 116°
2026-04-22 23:13 50.61859 2.98515 39184 ft 494 kts 117°
2026-04-22 23:13 50.60212 3.03277 39344 ft 498 kts 117°
2026-04-22 23:13 50.56860 3.12945 39341 ft 503 kts 117°
2026-04-22 23:14 50.53535 3.22492 39341 ft 501 kts 117°
2026-04-22 23:14 50.50185 3.32079 39347 ft 498 kts 117°
2026-04-22 23:15 50.46839 3.41617 39351 ft 498 kts 117°
2026-04-22 23:15 50.43486 3.51142 39353 ft 499 kts 117°
2026-04-22 23:16 50.40118 3.60674 39350 ft 499 kts 117°
2026-04-22 23:16 50.36760 3.70139 39375 ft 500 kts 117°
2026-04-22 23:17 50.33377 3.79641 39363 ft 499 kts 117°
2026-04-22 23:17 50.29989 3.89122 39356 ft 499 kts 117°
2026-04-22 23:18 50.26597 3.98579 39354 ft 499 kts 117°
2026-04-22 23:18 50.23191 4.08039 39357 ft 498 kts 117°
2026-04-22 23:19 50.19810 4.17397 39355 ft 498 kts 117°
2026-04-22 23:19 50.16402 4.26796 39348 ft 497 kts 117°
2026-04-22 23:20 50.12988 4.36174 39351 ft 497 kts 117°
2026-04-22 23:20 50.09566 4.45542 39321 ft 498 kts 118°
2026-04-22 23:21 50.06125 4.54928 39331 ft 499 kts 118°
2026-04-22 23:21 50.02673 4.64310 39358 ft 499 kts 118°
2026-04-22 23:22 49.99804 4.72082 39362 ft 499 kts 118°
2026-04-22 23:22 49.96339 4.81436 39364 ft 499 kts 118°
2026-04-22 23:23 49.92867 4.90777 39347 ft 499 kts 118°
2026-04-22 23:23 49.89393 5.00087 39378 ft 498 kts 118°
2026-04-22 23:24 49.85915 5.09376 39352 ft 497 kts 118°
2026-04-22 23:24 49.82454 5.18589 39338 ft 497 kts 118°
2026-04-22 23:25 49.78966 5.27837 39335 ft 497 kts 118°
2026-04-22 23:25 49.75470 5.37076 39332 ft 497 kts 118°
2026-04-22 23:26 49.71970 5.46292 39344 ft 497 kts 118°
2026-04-22 23:26 49.68460 5.55501 39344 ft 497 kts 118°
2026-04-22 23:27 49.64946 5.64689 39335 ft 497 kts 118°
2026-04-22 23:27 49.61423 5.73869 39336 ft 497 kts 118°
2026-04-22 23:28 49.57914 5.82979 39326 ft 497 kts 118°
2026-04-22 23:28 49.54377 5.92133 39345 ft 497 kts 118°
2026-04-22 23:29 49.50833 6.01270 39347 ft 497 kts 118°
2026-04-22 23:29 49.47289 6.10377 39346 ft 497 kts 118°
2026-04-22 23:30 49.43731 6.19486 39342 ft 496 kts 118°
2026-04-22 23:30 49.40194 6.28513 39349 ft 496 kts 118°
2026-04-22 23:31 49.36628 6.37580 39337 ft 496 kts 118°
2026-04-22 23:31 49.33059 6.46625 39317 ft 495 kts 118°
2026-04-22 23:32 49.29483 6.55658 39314 ft 495 kts 119°
2026-04-22 23:32 49.25901 6.64674 39319 ft 495 kts 119°
2026-04-22 23:33 49.22332 6.73627 39333 ft 496 kts 119°
2026-04-22 23:33 49.18735 6.82619 39325 ft 495 kts 119°
2026-04-22 23:34 49.15129 6.91605 39323 ft 495 kts 119°
2026-04-22 23:34 49.11519 7.00568 39319 ft 495 kts 119°
2026-04-22 23:35 49.07904 7.09515 39332 ft 495 kts 119°
2026-04-22 23:35 49.04280 7.18452 39319 ft 495 kts 119°
2026-04-22 23:36 49.00669 7.27330 39322 ft 496 kts 120°
2026-04-22 23:36 48.97021 7.36267 39323 ft 496 kts 120°
2026-04-22 23:37 48.93374 7.45173 39327 ft 496 kts 120°
2026-04-22 23:37 48.89744 7.54008 39340 ft 495 kts 120°
2026-04-22 23:38 48.86088 7.62874 39330 ft 495 kts 120°
2026-04-22 23:38 48.82427 7.71726 39324 ft 494 kts 120°
2026-04-22 23:39 48.78763 7.80555 39308 ft 494 kts 120°
2026-04-22 23:39 48.75093 7.89369 39328 ft 494 kts 120°
2026-04-22 23:40 48.71434 7.98128 39318 ft 494 kts 120°
2026-04-22 23:40 48.67755 8.06907 39319 ft 494 kts 120°
2026-04-22 23:41 48.64063 8.15687 39317 ft 494 kts 120°
2026-04-22 23:41 48.60365 8.24453 39322 ft 494 kts 120°
2026-04-22 23:42 48.56661 8.33204 39322 ft 494 kts 120°
2026-04-22 23:42 48.52974 8.41886 39326 ft 494 kts 120°
2026-04-22 23:43 48.49256 8.50615 39324 ft 494 kts 120°
2026-04-22 23:43 48.45533 8.59328 39325 ft 494 kts 120°
2026-04-22 23:44 48.41800 8.68033 39343 ft 494 kts 120°
2026-04-22 23:44 48.38067 8.76712 39341 ft 494 kts 120°
2026-04-22 23:45 48.34327 8.85378 39339 ft 493 kts 120°
2026-04-22 23:45 48.30610 8.93966 39338 ft 493 kts 120°
2026-04-22 23:46 48.26865 9.02590 39319 ft 493 kts 120°
2026-04-22 23:46 48.23114 9.11200 39329 ft 493 kts 120°
2026-04-22 23:47 48.19355 9.19800 39329 ft 492 kts 120°
2026-04-22 23:47 48.15597 9.28370 39332 ft 492 kts 121°
2026-04-22 23:48 48.11831 9.36934 39326 ft 492 kts 121°
2026-04-22 23:48 48.08082 9.45431 39330 ft 493 kts 121°
2026-04-22 23:49 48.04297 9.53983 39321 ft 492 kts 121°
2026-04-22 23:49 48.00508 9.62518 39314 ft 493 kts 121°
2026-04-22 23:50 47.96712 9.71048 39308 ft 493 kts 121°
2026-04-22 23:50 47.92939 9.79513 39327 ft 493 kts 121°
2026-04-22 23:51 47.89129 9.88035 39317 ft 493 kts 121°
2026-04-22 23:51 47.85313 9.96542 39316 ft 493 kts 121°
2026-04-22 23:52 47.81605 10.05117 39324 ft 492 kts 117°
2026-04-22 23:52 47.78217 10.13949 39318 ft 491 kts 117°
2026-04-22 23:53 47.74803 10.22760 39315 ft 492 kts 117°
2026-04-22 23:53 47.71368 10.31483 39320 ft 492 kts 117°
2026-04-22 23:54 47.67895 10.40248 39318 ft 492 kts 117°
2026-04-22 23:54 47.64417 10.48999 39318 ft 492 kts 117°
2026-04-22 23:55 47.60930 10.57747 39320 ft 493 kts 117°
2026-04-22 23:55 47.57437 10.66480 39326 ft 493 kts 117°
2026-04-22 23:56 47.53934 10.75209 39328 ft 493 kts 118°
2026-04-22 23:56 47.50423 10.83929 39330 ft 493 kts 118°
2026-04-22 23:57 47.46904 10.92644 39324 ft 494 kts 118°
2026-04-22 23:57 47.43397 11.01301 39319 ft 494 kts 118°
2026-04-22 23:58 47.39855 11.10017 39328 ft 495 kts 118°
2026-04-22 23:58 47.36307 11.18714 39324 ft 494 kts 118°
2026-04-22 23:59 47.32754 11.27402 39361 ft 495 kts 118°
2026-04-22 23:59 47.29192 11.36084 39345 ft 495 kts 118°
2026-04-23 00:00 47.23829 11.49101 39349 ft 495 kts 118°
2026-04-23 00:01 47.20245 11.57766 39342 ft 496 kts 118°
2026-04-23 00:01 47.16674 11.66372 39328 ft 497 kts 118°
2026-04-23 00:02 47.13067 11.75035 39328 ft 496 kts 118°
2026-04-23 00:02 47.09457 11.83682 39327 ft 497 kts 118°
2026-04-23 00:03 47.06172 11.92567 39334 ft 494 kts 113°
2026-04-23 00:03 47.03167 12.01652 39333 ft 495 kts 113°
2026-04-23 00:04 47.00159 12.10658 39330 ft 494 kts 113°
2026-04-23 00:04 46.97121 12.19690 39311 ft 494 kts 113°
2026-04-23 00:05 46.94082 12.28694 39309 ft 493 kts 113°
2026-04-23 00:05 46.91033 12.37694 39311 ft 494 kts 113°
2026-04-23 00:06 46.87969 12.46712 39317 ft 495 kts 114°
2026-04-23 00:06 46.84893 12.55733 39313 ft 496 kts 114°
2026-04-23 00:07 46.81804 12.64756 39309 ft 495 kts 114°
2026-04-23 00:07 46.78712 12.73761 39318 ft 496 kts 114°
2026-04-23 00:08 46.75611 12.82761 39308 ft 495 kts 114°
2026-04-23 00:08 46.72513 12.91723 39299 ft 495 kts 114°
2026-04-23 00:09 46.69404 13.00682 39291 ft 495 kts 114°
2026-04-23 00:09 46.66311 13.09566 39293 ft 495 kts 114°
2026-04-23 00:10 46.63195 13.18489 39291 ft 494 kts 114°
2026-04-23 00:10 46.60070 13.27408 39274 ft 495 kts 114°
2026-04-23 00:11 46.56619 13.36100 39277 ft 499 kts 122°
2026-04-23 00:11 46.52295 13.43958 39283 ft 503 kts 130°
2026-04-23 00:12 46.47358 13.51176 39271 ft 504 kts 132°
2026-04-23 00:12 46.42433 13.58403 39270 ft 504 kts 132°
2026-04-23 00:13 46.37508 13.65624 39275 ft 503 kts 132°
2026-04-23 00:13 46.33407 13.71612 39261 ft 504 kts 132°
2026-04-23 00:14 46.28457 13.78824 39264 ft 506 kts 132°
2026-04-23 00:14 46.23476 13.86058 39279 ft 507 kts 132°
2026-04-23 00:15 46.18522 13.93230 39279 ft 507 kts 132°
2026-04-23 00:15 46.13536 14.00430 39282 ft 507 kts 132°
2026-04-23 00:16 46.08541 14.07624 39265 ft 507 kts 132°
2026-04-23 00:16 46.03542 14.14802 39267 ft 507 kts 133°
2026-04-23 00:17 45.98565 14.21930 39272 ft 508 kts 133°
2026-04-23 00:17 45.93550 14.29094 39271 ft 508 kts 133°
2026-04-23 00:18 45.88494 14.36296 39285 ft 509 kts 133°
2026-04-23 00:18 45.83501 14.43391 39282 ft 509 kts 133°
2026-04-23 00:19 45.78463 14.50530 39282 ft 509 kts 133°
2026-04-23 00:19 45.73423 14.57650 39275 ft 508 kts 133°
2026-04-23 00:20 45.68384 14.64752 39287 ft 508 kts 133°
2026-04-23 00:20 45.63345 14.71835 39274 ft 508 kts 133°
2026-04-23 00:21 45.58307 14.78900 39254 ft 508 kts 133°
2026-04-23 00:21 45.53285 14.85920 39257 ft 508 kts 133°
2026-04-23 00:22 45.48226 14.92974 39264 ft 508 kts 133°
2026-04-23 00:22 45.43171 15.00004 39266 ft 508 kts 133°
2026-04-23 00:23 45.38100 15.07039 39261 ft 509 kts 133°
2026-04-23 00:23 45.33052 15.14022 39249 ft 509 kts 134°
2026-04-23 00:24 45.27961 15.21046 39254 ft 510 kts 134°
2026-04-23 00:24 45.22871 15.28050 39257 ft 510 kts 134°
2026-04-23 00:25 45.17760 15.35064 39267 ft 511 kts 134°
2026-04-23 00:25 45.12647 15.42063 39272 ft 511 kts 134°
2026-04-23 00:26 45.07515 15.49070 39264 ft 513 kts 134°
2026-04-23 00:26 45.02373 15.56073 39274 ft 513 kts 134°
2026-04-23 00:27 44.97250 15.63030 39280 ft 513 kts 134°
2026-04-23 00:27 44.92096 15.70011 39278 ft 513 kts 134°
2026-04-23 00:28 44.86935 15.76984 39264 ft 513 kts 134°
2026-04-23 00:28 44.81778 15.83934 39254 ft 513 kts 134°
2026-04-23 00:29 44.76604 15.90887 39278 ft 514 kts 134°
2026-04-23 00:29 44.71429 15.97824 39275 ft 514 kts 134°
2026-04-23 00:30 44.66283 16.04704 39271 ft 514 kts 134°
2026-04-23 00:30 44.61103 16.11614 39246 ft 514 kts 135°
2026-04-23 00:31 44.55905 16.18527 39259 ft 514 kts 135°
2026-04-23 00:31 44.50699 16.25434 39241 ft 515 kts 135°
2026-04-23 00:32 44.45489 16.32328 39244 ft 515 kts 135°
2026-04-23 00:32 44.40275 16.39209 39255 ft 515 kts 135°
2026-04-23 00:33 44.35074 16.46056 39239 ft 516 kts 135°
2026-04-23 00:33 44.29837 16.52934 39239 ft 517 kts 135°
2026-04-23 00:34 44.24587 16.59810 39249 ft 518 kts 135°
2026-04-23 00:34 44.19318 16.66693 39252 ft 519 kts 135°
2026-04-23 00:35 44.14042 16.73568 39244 ft 520 kts 135°
2026-04-23 00:35 44.08746 16.80450 39228 ft 521 kts 135°
2026-04-23 00:36 44.03447 16.87320 39248 ft 521 kts 135°
2026-04-23 00:36 43.98172 16.94140 39243 ft 521 kts 135°
2026-04-23 00:37 43.92857 17.00995 39233 ft 522 kts 135°
2026-04-23 00:37 43.87529 17.07849 39225 ft 521 kts 136°
2026-04-23 00:38 43.82200 17.14688 39231 ft 522 kts 136°
2026-04-23 00:38 43.76867 17.21513 39222 ft 522 kts 136°
2026-04-23 00:39 43.71536 17.28319 39213 ft 522 kts 136°
2026-04-23 00:39 43.66232 17.35073 39198 ft 522 kts 136°
2026-04-23 00:40 43.60892 17.41857 39196 ft 522 kts 137°
2026-04-23 00:40 43.55532 17.48647 39195 ft 522 kts 137°
2026-04-23 00:41 43.50174 17.55418 39197 ft 523 kts 137°
2026-04-23 00:41 43.44839 17.62143 39186 ft 523 kts 137°
2026-04-23 00:42 43.39464 17.68903 39186 ft 523 kts 137°
2026-04-23 00:42 43.34096 17.75644 39188 ft 523 kts 137°
2026-04-23 00:43 43.28723 17.82377 39131 ft 523 kts 137°
2026-04-23 00:43 43.23249 17.88950 39129 ft 522 kts 139°
2026-04-23 00:44 43.17778 17.95402 39120 ft 522 kts 139°
2026-04-23 00:44 43.12277 18.01915 39122 ft 523 kts 139°
2026-04-23 00:45 43.06757 18.08412 39134 ft 524 kts 139°
2026-04-23 00:45 43.01209 18.14913 39146 ft 524 kts 139°
2026-04-23 00:46 42.95662 18.21394 39139 ft 525 kts 139°
2026-04-23 00:46 42.90142 18.27827 39141 ft 525 kts 139°
2026-04-23 00:47 42.84574 18.34300 39122 ft 525 kts 139°
2026-04-23 00:47 42.79000 18.40764 39106 ft 526 kts 139°
2026-04-23 00:48 42.73428 18.47211 39113 ft 526 kts 140°
2026-04-23 00:48 42.67854 18.53646 39105 ft 525 kts 140°
2026-04-23 00:49 42.62275 18.60068 39109 ft 525 kts 140°
2026-04-23 00:49 42.56690 18.66483 39096 ft 525 kts 140°
2026-04-23 00:50 42.51144 18.72836 39084 ft 525 kts 140°
2026-04-23 00:50 42.45560 18.79219 39114 ft 525 kts 140°
2026-04-23 00:51 42.39962 18.85604 39094 ft 526 kts 141°
2026-04-23 00:51 42.34362 18.91972 39093 ft 526 kts 141°
2026-04-23 00:52 42.28755 18.98334 39094 ft 526 kts 141°
2026-04-23 00:52 42.23142 19.04688 39099 ft 527 kts 141°
2026-04-23 00:53 42.17514 19.11044 39086 ft 527 kts 141°
2026-04-23 00:53 42.11919 19.17348 39089 ft 528 kts 141°
2026-04-23 00:54 42.06272 19.23695 39091 ft 528 kts 141°
2026-04-23 00:54 42.00627 19.30024 39079 ft 528 kts 141°
2026-04-23 00:55 41.94983 19.36338 39076 ft 527 kts 141°
2026-04-23 00:55 41.89339 19.42635 39063 ft 527 kts 142°
2026-04-23 00:56 41.83693 19.48920 39073 ft 526 kts 142°
2026-04-23 00:56 41.78054 19.55183 39056 ft 526 kts 142°
2026-04-23 00:57 41.72418 19.61427 39034 ft 525 kts 142°
2026-04-23 00:57 41.66813 19.67623 39032 ft 525 kts 142°
2026-04-23 00:58 41.61164 19.73853 39038 ft 526 kts 142°
2026-04-23 00:58 41.55503 19.80080 39038 ft 527 kts 142°
2026-04-23 00:59 41.49836 19.86300 39032 ft 528 kts 142°
2026-04-23 00:59 41.44160 19.92517 39051 ft 528 kts 143°
2026-04-23 01:00 41.38507 19.98693 39057 ft 528 kts 143°
2026-04-23 01:00 41.32815 20.04897 39057 ft 529 kts 143°
2026-04-23 01:01 41.27121 20.11089 39063 ft 529 kts 143°
2026-04-23 01:01 41.21412 20.17283 39038 ft 528 kts 143°
2026-04-23 01:02 41.15742 20.23419 39059 ft 529 kts 144°
2026-04-23 01:02 41.10021 20.29597 39066 ft 530 kts 144°
2026-04-23 01:03 41.04291 20.35771 39085 ft 531 kts 144°
2026-04-23 01:03 40.99517 20.40904 39081 ft 531 kts 144°
2026-04-23 01:04 40.93781 20.47059 39076 ft 530 kts 144°
2026-04-23 01:04 40.85215 20.56220 39073 ft 530 kts 144°
2026-04-23 01:05 40.79487 20.62330 39076 ft 529 kts 144°
2026-04-23 01:05 40.73753 20.68432 39082 ft 528 kts 144°
2026-04-23 01:06 40.68030 20.74511 39055 ft 529 kts 144°
2026-04-23 01:06 40.62281 20.80600 39059 ft 530 kts 144°
2026-04-23 01:07 40.56548 20.86662 39060 ft 532 kts 144°
2026-04-23 01:07 40.50766 20.92766 39065 ft 533 kts 144°
2026-04-23 01:08 40.44990 20.98898 39050 ft 534 kts 143°
2026-04-23 01:08 40.39271 21.05168 39049 ft 537 kts 143°
2026-04-23 01:09 40.33533 21.11464 39071 ft 539 kts 143°
2026-04-23 01:09 40.27799 21.17727 39078 ft 540 kts 143°
2026-04-23 01:10 40.22020 21.24020 39083 ft 540 kts 143°
2026-04-23 01:10 40.16235 21.30305 39065 ft 541 kts 143°
2026-04-23 01:11 40.10445 21.36580 39068 ft 541 kts 143°
2026-04-23 01:11 40.04644 21.42846 39065 ft 540 kts 144°
2026-04-23 01:12 39.98850 21.49090 39063 ft 540 kts 144°
2026-04-23 01:12 39.93056 21.55318 39040 ft 539 kts 144°
2026-04-23 01:13 39.87268 21.61527 39052 ft 539 kts 144°
2026-04-23 01:13 39.81483 21.67718 39051 ft 538 kts 144°
2026-04-23 01:14 39.75727 21.73864 39049 ft 538 kts 144°
2026-04-23 01:14 39.69934 21.80036 39051 ft 538 kts 144°
2026-04-23 01:15 39.64134 21.86201 39045 ft 538 kts 144°
2026-04-23 01:15 39.58340 21.92345 39048 ft 538 kts 144°
2026-04-23 01:16 39.52531 21.98493 39054 ft 539 kts 144°
2026-04-23 01:16 39.46727 22.04622 39065 ft 539 kts 144°
2026-04-23 01:17 39.40941 22.10718 39065 ft 539 kts 144°
2026-04-23 01:17 39.35122 22.16835 39061 ft 539 kts 144°
2026-04-23 01:18 39.29297 22.22945 39060 ft 539 kts 144°
2026-04-23 01:18 39.23474 22.29040 39058 ft 539 kts 144°
2026-04-23 01:19 39.17638 22.35134 39057 ft 539 kts 144°
2026-04-23 01:19 39.11846 22.41169 39052 ft 538 kts 144°
2026-04-23 01:20 39.06027 22.47220 39060 ft 537 kts 144°
2026-04-23 01:20 39.00214 22.53251 39051 ft 536 kts 144°
2026-04-23 01:21 38.94416 22.59254 39040 ft 535 kts 144°
2026-04-23 01:21 38.88620 22.65240 39020 ft 533 kts 144°
2026-04-23 01:22 38.82845 22.71194 39038 ft 531 kts 145°
2026-04-23 01:22 38.77118 22.77083 39028 ft 530 kts 145°
2026-04-23 01:23 38.71363 22.82990 39042 ft 529 kts 145°
2026-04-23 01:23 38.65613 22.88879 39028 ft 528 kts 145°
2026-04-23 01:24 38.59865 22.94754 39027 ft 528 kts 145°
2026-04-23 01:24 38.54160 23.00572 39012 ft 528 kts 146°
2026-04-23 01:25 38.48412 23.06422 39037 ft 528 kts 146°
2026-04-23 01:25 38.42649 23.12275 39016 ft 529 kts 146°
2026-04-23 01:26 38.36881 23.18120 39028 ft 530 kts 146°
2026-04-23 01:26 38.31097 23.23970 39029 ft 530 kts 146°
2026-04-23 01:27 38.25353 23.29766 39027 ft 530 kts 146°
2026-04-23 01:27 38.19565 23.35596 39025 ft 530 kts 146°
2026-04-23 01:28 38.13782 23.41408 39008 ft 529 kts 146°
2026-04-23 01:28 38.08001 23.47206 38958 ft 529 kts 146°
2026-04-23 01:29 38.02252 23.52960 38950 ft 529 kts 147°
2026-04-23 01:29 37.96435 23.58770 38980 ft 530 kts 147°
2026-04-23 01:30 37.90672 23.64514 38980 ft 530 kts 147°
2026-04-23 01:30 37.84870 23.70285 38975 ft 531 kts 147°
2026-04-23 01:31 37.79061 23.76052 38970 ft 531 kts 147°
2026-04-23 01:31 37.73259 23.81801 38973 ft 530 kts 147°
2026-04-23 01:32 37.67444 23.87549 38974 ft 530 kts 147°
2026-04-23 01:32 37.61628 23.93286 38978 ft 530 kts 147°
2026-04-23 01:33 37.55851 23.98974 38968 ft 530 kts 147°
2026-04-23 01:33 37.50032 24.04692 38965 ft 530 kts 147°
2026-04-23 01:34 37.44223 24.10389 38981 ft 528 kts 147°
2026-04-23 01:34 37.38421 24.16066 38968 ft 527 kts 147°
2026-04-23 01:35 37.32630 24.21722 38959 ft 527 kts 147°
2026-04-23 01:35 37.26849 24.27356 38951 ft 526 kts 147°
2026-04-23 01:36 37.21067 24.32980 38941 ft 525 kts 147°
2026-04-23 01:36 37.15299 24.38580 38946 ft 524 kts 147°
2026-04-23 01:37 37.09538 24.44162 38948 ft 523 kts 147°
2026-04-23 01:37 37.03772 24.49736 38944 ft 523 kts 147°
2026-04-23 01:38 36.98015 24.55292 38941 ft 522 kts 147°
2026-04-23 01:38 36.92288 24.60808 38906 ft 522 kts 147°
2026-04-23 01:39 36.86537 24.66337 38935 ft 521 kts 147°
2026-04-23 01:39 36.80785 24.71856 38932 ft 522 kts 147°
2026-04-23 01:40 36.75022 24.77374 38933 ft 522 kts 147°
2026-04-23 01:40 36.69262 24.82879 38934 ft 522 kts 147°
2026-04-23 01:41 36.63499 24.88376 38924 ft 521 kts 147°
2026-04-23 01:41 36.57767 24.93834 38926 ft 522 kts 147°
2026-04-23 01:42 36.52000 24.99313 38931 ft 522 kts 147°
2026-04-23 01:42 36.46233 25.04781 38934 ft 521 kts 147°
2026-04-23 01:43 36.40464 25.10242 38929 ft 521 kts 147°
2026-04-23 01:43 36.34697 25.15690 38922 ft 521 kts 147°
2026-04-23 01:44 36.28927 25.21131 38915 ft 521 kts 147°
2026-04-23 01:44 36.23159 25.26559 38926 ft 521 kts 147°
2026-04-23 01:45 36.17383 25.31985 38925 ft 521 kts 147°
2026-04-23 01:45 36.11651 25.37359 38923 ft 520 kts 147°
2026-04-23 01:46 36.05873 25.42766 38922 ft 519 kts 147°
2026-04-23 01:46 36.00114 25.48146 38932 ft 519 kts 147°
2026-04-23 01:47 35.94348 25.53521 38926 ft 518 kts 147°
2026-04-23 01:47 35.88616 25.58854 38926 ft 518 kts 148°
2026-04-23 01:48 35.82860 25.64201 38925 ft 518 kts 148°
2026-04-23 01:48 35.77104 25.69538 38921 ft 517 kts 148°
2026-04-23 01:49 35.71350 25.74863 38925 ft 516 kts 148°
2026-04-23 01:49 35.65596 25.80176 38923 ft 516 kts 148°
2026-04-23 01:50 35.59887 25.85440 38928 ft 516 kts 148°
2026-04-23 01:50 35.54144 25.90725 38924 ft 516 kts 148°
2026-04-23 01:51 35.48383 25.96018 38919 ft 516 kts 148°
2026-04-23 01:51 35.42629 26.01293 38926 ft 515 kts 148°
2026-04-23 01:52 35.36887 26.06549 38929 ft 515 kts 148°
2026-04-23 01:52 35.31178 26.11764 38925 ft 515 kts 148°
2026-04-23 01:53 35.25438 26.16999 38918 ft 514 kts 148°
2026-04-23 01:53 35.19690 26.22231 38923 ft 514 kts 148°
2026-04-23 01:54 35.13980 26.27420 38931 ft 514 kts 148°
2026-04-23 01:54 35.08241 26.32625 38930 ft 513 kts 148°
2026-04-23 01:55 35.03466 26.36949 38928 ft 513 kts 148°
2026-04-23 01:55 34.97728 26.42136 38927 ft 513 kts 148°
2026-04-23 01:56 34.91998 26.47307 38893 ft 512 kts 149°
2026-04-23 01:56 34.85348 26.53297 38920 ft 512 kts 149°
2026-04-23 01:57 34.80547 26.57613 38918 ft 512 kts 149°
2026-04-23 01:57 34.74838 26.62737 38932 ft 512 kts 149°
2026-04-23 01:58 34.69096 26.67882 38932 ft 513 kts 149°
2026-04-23 01:58 34.63346 26.73026 38938 ft 514 kts 149°
2026-04-23 01:59 34.57588 26.78167 38942 ft 514 kts 149°
2026-04-23 01:59 34.51822 26.83306 38948 ft 514 kts 149°
2026-04-23 02:00 34.46046 26.88446 38958 ft 515 kts 149°
2026-04-23 02:00 34.40268 26.93577 38959 ft 515 kts 149°
2026-04-23 02:01 34.34487 26.98703 38959 ft 515 kts 149°
2026-04-23 02:01 34.28744 27.03787 38953 ft 515 kts 149°
2026-04-23 02:02 34.22957 27.08901 38959 ft 515 kts 149°
2026-04-23 02:02 34.17171 27.14009 38962 ft 515 kts 149°
2026-04-23 02:03 34.11376 27.19117 38963 ft 514 kts 149°
2026-04-23 02:03 34.05635 27.24169 38965 ft 514 kts 149°
2026-04-23 02:04 33.99859 27.29243 38969 ft 513 kts 150°
2026-04-23 02:04 33.93874 27.33824 38964 ft 506 kts 158°
2026-04-23 02:05 33.87540 27.37399 38961 ft 501 kts 163°
2026-04-23 02:05 33.81140 27.40768 38968 ft 502 kts 162°
2026-04-23 02:06 33.74745 27.44161 38968 ft 501 kts 163°
2026-04-23 02:06 33.68359 27.47539 38969 ft 501 kts 163°
2026-04-23 02:07 33.61973 27.50910 38978 ft 501 kts 163°
2026-04-23 02:07 33.55624 27.54254 38976 ft 501 kts 163°
2026-04-23 02:08 33.49234 27.57615 38946 ft 501 kts 163°
2026-04-23 02:08 33.42856 27.60965 38970 ft 500 kts 163°
2026-04-23 02:09 33.36467 27.64314 38973 ft 501 kts 163°
2026-04-23 02:09 33.30088 27.67653 38976 ft 501 kts 163°
2026-04-23 02:10 33.23737 27.70972 38978 ft 501 kts 163°
2026-04-23 02:10 33.17337 27.74312 38973 ft 501 kts 163°
2026-04-23 02:11 33.10933 27.77648 38976 ft 502 kts 163°
2026-04-23 02:11 33.04531 27.80977 38979 ft 502 kts 163°
2026-04-23 02:12 32.98168 27.84282 38981 ft 502 kts 163°
2026-04-23 02:12 32.91755 27.87607 38997 ft 502 kts 163°
2026-04-23 02:13 32.85351 27.90922 38990 ft 502 kts 163°
2026-04-23 02:13 32.78933 27.94239 38997 ft 502 kts 163°
2026-04-23 02:14 32.72564 27.97525 38981 ft 502 kts 163°
2026-04-23 02:14 32.66154 28.00828 38979 ft 502 kts 163°
2026-04-23 02:15 32.56546 28.05768 38976 ft 502 kts 163°
2026-04-23 02:16 32.50145 28.09053 38998 ft 501 kts 163°
2026-04-23 02:16 32.43755 28.12328 38989 ft 500 kts 163°
2026-04-23 02:17 32.37377 28.15591 38985 ft 498 kts 163°
2026-04-23 02:17 32.31051 28.18822 38985 ft 497 kts 163°
2026-04-23 02:18 32.24691 28.22066 38981 ft 497 kts 163°
2026-04-23 02:18 32.18342 28.25299 38974 ft 497 kts 163°
2026-04-23 02:19 32.11993 28.28527 38962 ft 496 kts 163°
2026-04-23 02:19 32.05650 28.31748 38974 ft 496 kts 163°
2026-04-23 02:20 31.99294 28.34969 38980 ft 497 kts 163°
2026-04-23 02:20 31.92976 28.38167 38980 ft 497 kts 163°
2026-04-23 02:21 31.86621 28.41381 38983 ft 497 kts 163°
2026-04-23 02:21 31.80260 28.44585 38979 ft 497 kts 163°
2026-04-23 02:22 31.73885 28.47781 38988 ft 498 kts 163°
2026-04-23 02:22 31.67512 28.50976 38989 ft 498 kts 163°
2026-04-23 02:23 31.61127 28.54171 38987 ft 498 kts 163°
2026-04-23 02:23 31.54756 28.57349 38981 ft 498 kts 163°
2026-04-23 02:24 31.48371 28.60525 38979 ft 498 kts 163°
2026-04-23 02:24 31.42028 28.63678 38978 ft 498 kts 163°
2026-04-23 02:25 31.35640 28.66848 38972 ft 498 kts 163°
2026-04-23 02:25 31.29259 28.70010 38970 ft 497 kts 163°
2026-04-23 02:26 31.22890 28.73162 38977 ft 497 kts 163°
2026-04-23 02:26 31.16560 28.76289 38980 ft 497 kts 163°
2026-04-23 02:27 31.10187 28.79433 38979 ft 497 kts 163°
2026-04-23 02:27 31.03811 28.82574 38981 ft 497 kts 163°
2026-04-23 02:28 30.97435 28.85711 38978 ft 497 kts 163°
2026-04-23 02:28 30.91049 28.88847 38982 ft 498 kts 163°
2026-04-23 02:29 30.84667 28.91978 38964 ft 498 kts 163°
2026-04-23 02:29 30.78278 28.95107 38980 ft 498 kts 163°
2026-04-23 02:30 30.71927 28.98214 38971 ft 497 kts 164°
2026-04-23 02:30 30.65540 29.01333 38975 ft 497 kts 164°
2026-04-23 02:31 30.59158 29.04445 38967 ft 497 kts 164°
2026-04-23 02:31 30.52849 29.07816 38967 ft 504 kts 156°
2026-04-23 02:32 30.47065 29.12563 38965 ft 516 kts 144°
2026-04-23 02:32 30.42001 29.18474 38949 ft 521 kts 139°
2026-04-23 02:33 30.36975 29.24534 38955 ft 521 kts 140°
2026-04-23 02:33 30.31929 29.30565 38947 ft 522 kts 140°
2026-04-23 02:34 30.26863 29.36614 38961 ft 523 kts 140°
2026-04-23 02:34 30.21803 29.42654 38963 ft 524 kts 140°
2026-04-23 02:35 30.16758 29.48668 38970 ft 524 kts 140°
2026-04-23 02:35 30.11676 29.54715 38960 ft 524 kts 140°
2026-04-23 02:36 30.06587 29.60762 38954 ft 525 kts 141°
2026-04-23 02:36 30.01494 29.66803 38969 ft 525 kts 141°
2026-04-23 02:37 29.96388 29.72850 38975 ft 525 kts 141°
2026-04-23 02:37 29.91278 29.78892 38976 ft 526 kts 141°
2026-04-23 02:38 29.86199 29.84889 38976 ft 525 kts 141°
2026-04-23 02:38 29.81098 29.90903 38980 ft 525 kts 141°
2026-04-23 02:39 29.75986 29.96919 38978 ft 525 kts 141°
2026-04-23 02:39 29.70879 30.02921 38976 ft 524 kts 141°
2026-04-23 02:40 29.65795 30.08886 38983 ft 524 kts 141°
2026-04-23 02:40 29.60685 30.14872 38976 ft 524 kts 141°
2026-04-23 02:41 29.55570 30.20856 38975 ft 524 kts 141°
2026-04-23 02:41 29.50454 30.26831 38978 ft 524 kts 141°
2026-04-23 02:42 29.45329 30.32806 38981 ft 524 kts 141°
2026-04-23 02:42 29.40241 30.38732 38953 ft 525 kts 141°
2026-04-23 02:43 29.35156 30.44748 38967 ft 526 kts 141°
2026-04-23 02:43 29.30086 30.50831 38972 ft 527 kts 141°
2026-04-23 02:44 29.25007 30.56895 38981 ft 528 kts 141°
2026-04-23 02:44 29.19947 30.62917 38987 ft 528 kts 141°
2026-04-23 02:45 29.14848 30.68975 38991 ft 529 kts 141°
2026-04-23 02:45 29.09737 30.75038 38993 ft 529 kts 141°
2026-04-23 02:46 29.04630 30.81087 38967 ft 529 kts 141°
2026-04-23 02:46 28.99519 30.87132 38981 ft 528 kts 141°
2026-04-23 02:47 28.94411 30.93163 38982 ft 528 kts 141°
2026-04-23 02:47 28.89298 30.99191 38972 ft 528 kts 141°
2026-04-23 02:48 28.84212 31.05178 38974 ft 529 kts 141°
2026-04-23 02:48 28.79087 31.11203 38978 ft 529 kts 141°
2026-04-23 02:49 28.74818 31.16214 38981 ft 530 kts 141°
2026-04-23 02:49 28.69681 31.22237 38976 ft 530 kts 141°
2026-04-23 02:50 28.64680 31.28459 38953 ft 533 kts 139°
2026-04-23 02:50 28.59741 31.34766 38959 ft 534 kts 139°
2026-04-23 02:51 28.53959 31.42063 38964 ft 534 kts 140°
2026-04-23 02:51 28.49772 31.47318 38969 ft 535 kts 140°
2026-04-23 02:52 28.44767 31.53591 38966 ft 536 kts 140°
2026-04-23 02:52 28.39751 31.59868 38987 ft 536 kts 140°
2026-04-23 02:53 28.34730 31.66143 38989 ft 537 kts 140°
2026-04-23 02:53 28.29706 31.72412 38976 ft 536 kts 140°
2026-04-23 02:54 28.24682 31.78671 38973 ft 537 kts 140°
2026-04-23 02:54 28.19680 31.84893 38971 ft 537 kts 140°
2026-04-23 02:55 28.14643 31.91149 38977 ft 537 kts 140°
2026-04-23 02:55 28.09605 31.97398 38981 ft 537 kts 140°
2026-04-23 02:56 28.04627 32.03744 38983 ft 543 kts 135°
2026-04-23 02:56 28.00512 32.10956 38974 ft 554 kts 124°
2026-04-23 02:57 27.96853 32.18637 38967 ft 554 kts 125°
2026-04-23 02:57 27.93161 32.26297 38971 ft 555 kts 125°
2026-04-23 02:58 27.89460 32.33952 38945 ft 554 kts 125°
2026-04-23 02:58 27.85757 32.41602 38953 ft 554 kts 125°
2026-04-23 02:59 27.82047 32.49252 38955 ft 555 kts 125°
2026-04-23 02:59 27.78355 32.56851 38953 ft 555 kts 125°
2026-04-23 03:00 27.74637 32.64491 38938 ft 555 kts 126°
2026-04-23 03:00 27.70909 32.72137 38949 ft 556 kts 126°
2026-04-23 03:01 27.67172 32.79784 38940 ft 556 kts 126°
2026-04-23 03:01 27.63453 32.87384 38934 ft 557 kts 126°
2026-04-23 03:02 27.59710 32.95019 38924 ft 556 kts 126°
2026-04-23 03:02 27.55964 33.02642 38922 ft 556 kts 126°
2026-04-23 03:03 27.52207 33.10280 38913 ft 556 kts 126°
2026-04-23 03:03 27.48475 33.17851 38901 ft 556 kts 126°
2026-04-23 03:04 27.44718 33.25461 38907 ft 556 kts 126°
2026-04-23 03:04 27.40953 33.33074 38900 ft 556 kts 126°
2026-04-23 03:05 27.37184 33.40684 38898 ft 556 kts 126°
2026-04-23 03:05 27.33412 33.48279 38878 ft 556 kts 126°
2026-04-23 03:06 27.29633 33.55875 38883 ft 557 kts 126°
2026-04-23 03:06 27.25840 33.63488 38889 ft 558 kts 126°
2026-04-23 03:07 27.22069 33.71045 38879 ft 558 kts 126°
2026-04-23 03:07 27.18283 33.78676 38885 ft 561 kts 123°
2026-04-23 03:08 27.15221 33.86807 38888 ft 567 kts 117°
2026-04-23 03:08 27.12305 33.95048 38887 ft 567 kts 117°
2026-04-23 03:09 27.09375 34.03270 38872 ft 567 kts 117°
2026-04-23 03:09 27.06455 34.11446 38863 ft 568 kts 117°
2026-04-23 03:10 27.03513 34.19671 38863 ft 568 kts 117°
2026-04-23 03:10 27.00567 34.27888 38852 ft 568 kts 117°
2026-04-23 03:11 26.97613 34.36107 38850 ft 568 kts 117°
2026-04-23 03:11 26.94652 34.44330 38841 ft 568 kts 117°
2026-04-23 03:12 26.91690 34.52538 38836 ft 568 kts 118°
2026-04-23 03:12 26.88722 34.60741 38832 ft 568 kts 118°
2026-04-23 03:13 26.85766 34.68897 38822 ft 568 kts 118°
2026-04-23 03:13 26.82786 34.77103 38819 ft 568 kts 118°
2026-04-23 03:14 26.79798 34.85311 38812 ft 569 kts 118°
2026-04-23 03:14 26.76809 34.93508 38815 ft 569 kts 118°
2026-04-23 03:15 26.73829 35.01665 38804 ft 569 kts 118°
2026-04-23 03:15 26.70833 35.09854 38802 ft 569 kts 118°
2026-04-23 03:16 26.67832 35.18039 38806 ft 569 kts 118°
2026-04-23 03:16 26.63318 35.30318 38788 ft 569 kts 118°
2026-04-23 03:17 26.60305 35.38491 38781 ft 569 kts 118°
2026-04-23 03:17 26.57286 35.46665 38777 ft 569 kts 118°
2026-04-23 03:18 26.54250 35.54748 38791 ft 567 kts 119°
2026-04-23 03:18 26.51141 35.62847 38784 ft 566 kts 119°
2026-04-23 03:19 26.48042 35.70932 38779 ft 566 kts 119°
2026-04-23 03:19 26.44942 35.79018 38749 ft 565 kts 120°
2026-04-23 03:20 26.41853 35.87064 38766 ft 564 kts 120°
2026-04-23 03:20 26.38760 35.95101 38765 ft 564 kts 120°
2026-04-23 03:21 26.35684 36.03079 38759 ft 564 kts 120°
2026-04-23 03:21 26.32578 36.11118 38757 ft 564 kts 120°
2026-04-23 03:22 26.29470 36.19148 38763 ft 564 kts 120°
2026-04-23 03:22 26.26354 36.27183 38757 ft 564 kts 120°
2026-04-23 03:23 26.23235 36.35209 38762 ft 565 kts 120°
2026-04-23 03:23 26.20128 36.43189 38765 ft 565 kts 120°
2026-04-23 03:24 26.16828 36.51105 38783 ft 558 kts 127°
2026-04-23 03:24 26.13077 36.58669 38772 ft 559 kts 126°
2026-04-23 03:25 26.09344 36.66254 38771 ft 559 kts 126°
2026-04-23 03:25 26.05602 36.73841 38772 ft 559 kts 126°
2026-04-23 03:26 26.01857 36.81418 38779 ft 558 kts 126°
2026-04-23 03:26 25.98113 36.88975 38782 ft 558 kts 126°
2026-04-23 03:27 25.94372 36.96514 38792 ft 557 kts 126°
2026-04-23 03:27 25.90648 37.04009 38792 ft 557 kts 127°
2026-04-23 03:28 25.86902 37.11533 38799 ft 557 kts 127°
2026-04-23 03:28 25.83151 37.19055 38803 ft 556 kts 127°
2026-04-23 03:29 25.79396 37.26575 38805 ft 556 kts 127°
2026-04-23 03:29 25.75658 37.34090 38811 ft 556 kts 127°
2026-04-23 03:30 25.71945 37.41549 38825 ft 554 kts 127°
2026-04-23 03:30 25.68211 37.49035 38808 ft 554 kts 126°
2026-04-23 03:31 25.64470 37.56517 38826 ft 555 kts 126°
2026-04-23 03:31 25.60726 37.63994 38827 ft 555 kts 126°
2026-04-23 03:32 25.56970 37.71483 38834 ft 556 kts 126°
2026-04-23 03:32 25.53233 37.78922 38827 ft 557 kts 127°
2026-04-23 03:33 25.49466 37.86409 38823 ft 557 kts 127°
2026-04-23 03:33 25.45688 37.93905 38818 ft 557 kts 127°
2026-04-23 03:34 25.41904 38.01399 38807 ft 557 kts 127°
2026-04-23 03:34 25.38124 38.08876 38809 ft 557 kts 127°
2026-04-23 03:35 25.34362 38.16309 38809 ft 556 kts 127°
2026-04-23 03:35 25.30552 38.23821 38797 ft 556 kts 127°
2026-04-23 03:36 25.26761 38.31278 38812 ft 557 kts 127°
2026-04-23 03:36 25.22991 38.38688 38823 ft 557 kts 127°
2026-04-23 03:37 25.19187 38.46148 38822 ft 557 kts 127°
2026-04-23 03:37 25.15378 38.53608 38833 ft 558 kts 127°
2026-04-23 03:38 25.11557 38.61065 38825 ft 558 kts 127°
2026-04-23 03:38 25.07728 38.68526 38834 ft 557 kts 127°
2026-04-23 03:39 25.04563 38.74696 38831 ft 556 kts 127°
2026-04-23 03:39 25.00749 38.82110 38814 ft 555 kts 127°
2026-04-23 03:40 24.96313 38.90709 38819 ft 555 kts 127°
2026-04-23 03:40 24.93132 38.96865 38836 ft 557 kts 127°
2026-04-23 03:41 24.89290 39.04285 38854 ft 558 kts 127°
2026-04-23 03:41 24.85434 39.11721 38865 ft 560 kts 127°
2026-04-23 03:42 24.81563 39.19174 38869 ft 561 kts 127°
2026-04-23 03:42 24.77685 39.26638 38887 ft 561 kts 127°
2026-04-23 03:43 24.73804 39.34096 38891 ft 561 kts 127°
2026-04-23 03:43 24.69914 39.41559 38891 ft 562 kts 127°
2026-04-23 03:44 24.66023 39.49009 38895 ft 562 kts 127°
2026-04-23 03:44 24.62151 39.56406 38896 ft 561 kts 127°
2026-04-23 03:45 24.58260 39.63840 38900 ft 562 kts 126°
2026-04-23 03:45 24.55198 39.71838 38901 ft 576 kts 111°
2026-04-23 03:46 24.53775 39.80553 38902 ft 584 kts 98°
2026-04-23 03:46 24.52950 39.89435 38901 ft 585 kts 99°
2026-04-23 03:47 24.52087 39.98332 38903 ft 586 kts 99°
2026-04-23 03:47 24.51220 40.07231 38902 ft 586 kts 99°
2026-04-23 03:48 24.50353 40.16090 38905 ft 587 kts 99°
2026-04-23 03:48 24.49477 40.24997 38906 ft 587 kts 99°
2026-04-23 03:49 24.48594 40.33914 38903 ft 587 kts 99°
2026-04-23 03:49 24.47705 40.42833 38904 ft 587 kts 99°
2026-04-23 03:50 24.46817 40.51691 38907 ft 587 kts 99°
2026-04-23 03:50 24.45920 40.60600 38902 ft 587 kts 99°
2026-04-23 03:51 24.45015 40.69512 38903 ft 587 kts 99°
2026-04-23 03:51 24.44105 40.78411 38911 ft 587 kts 99°
2026-04-23 03:52 24.43188 40.87326 38911 ft 587 kts 99°
2026-04-23 03:52 24.42267 40.96227 38908 ft 587 kts 99°
2026-04-23 03:53 24.41341 41.05133 38911 ft 587 kts 99°
2026-04-23 03:53 24.40417 41.13966 38902 ft 587 kts 99°
2026-04-23 03:54 24.39485 41.22854 38909 ft 586 kts 99°
2026-04-23 03:54 24.38544 41.31761 38912 ft 586 kts 99°
2026-04-23 03:55 24.37600 41.40647 38905 ft 587 kts 99°
2026-04-23 03:55 24.36648 41.49555 38906 ft 587 kts 99°
2026-04-23 03:56 24.35694 41.58436 38898 ft 587 kts 99°
2026-04-23 03:56 24.34733 41.67335 38913 ft 587 kts 99°
2026-04-23 03:57 24.33767 41.76225 38909 ft 587 kts 99°
2026-04-23 03:57 24.32433 41.84966 38913 ft 583 kts 109°
2026-04-23 03:58 24.30179 41.93490 38898 ft 582 kts 110°
2026-04-23 03:58 24.27941 42.02017 38901 ft 581 kts 110°
2026-04-23 03:59 24.25702 42.10526 38900 ft 581 kts 110°
2026-04-23 03:59 24.23452 42.19037 38901 ft 581 kts 110°
2026-04-23 04:00 24.21218 42.27469 38905 ft 580 kts 110°
2026-04-23 04:00 24.18964 42.35952 38906 ft 580 kts 110°
2026-04-23 04:01 24.16704 42.44437 38905 ft 579 kts 110°
2026-04-23 04:01 24.14444 42.52903 38907 ft 579 kts 110°
2026-04-23 04:02 24.12180 42.61364 38912 ft 579 kts 110°
2026-04-23 04:02 24.09912 42.69819 38918 ft 579 kts 110°
2026-04-23 04:03 24.07639 42.78271 38925 ft 579 kts 110°
2026-04-23 04:03 24.05377 42.86664 38927 ft 579 kts 110°
2026-04-23 04:04 24.03091 42.95126 38938 ft 579 kts 110°
2026-04-23 04:04 24.00802 43.03572 38923 ft 579 kts 110°
2026-04-23 04:05 23.98511 43.12013 38943 ft 578 kts 110°
2026-04-23 04:05 23.96217 43.20440 38942 ft 577 kts 110°
2026-04-23 04:06 23.93939 43.28790 38953 ft 576 kts 110°
2026-04-23 04:06 23.91641 43.37193 38946 ft 576 kts 110°
2026-04-23 04:07 23.89343 43.45574 38956 ft 575 kts 110°
2026-04-23 04:07 23.87047 43.53932 38936 ft 574 kts 110°
2026-04-23 04:08 23.84747 43.62282 38933 ft 574 kts 110°
2026-04-23 04:08 23.82445 43.70625 38944 ft 572 kts 110°
2026-04-23 04:09 23.80143 43.78945 38931 ft 572 kts 110°
2026-04-23 04:09 23.77936 43.87230 38926 ft 573 kts 105°
2026-04-23 04:10 23.76865 43.95874 38917 ft 576 kts 95°
2026-04-23 04:10 23.76238 44.04610 38912 ft 576 kts 96°
2026-04-23 04:11 23.75582 44.13326 38904 ft 576 kts 96°
2026-04-23 04:11 23.74923 44.22060 38910 ft 577 kts 96°
2026-04-23 04:12 23.74265 44.30735 38913 ft 577 kts 96°
2026-04-23 04:12 23.73597 44.39485 38914 ft 578 kts 96°
2026-04-23 04:13 23.72923 44.48236 38934 ft 578 kts 96°
2026-04-23 04:13 23.72246 44.56975 38933 ft 577 kts 96°
2026-04-23 04:14 23.71565 44.65695 38932 ft 576 kts 96°
2026-04-23 04:14 23.70879 44.74413 38929 ft 576 kts 96°
2026-04-23 04:15 23.70193 44.83070 38928 ft 575 kts 96°
2026-04-23 04:16 23.69151 44.96105 38925 ft 574 kts 96°
2026-04-23 04:16 23.68450 45.04786 38914 ft 574 kts 96°
2026-04-23 04:17 23.67750 45.13404 38927 ft 573 kts 96°
2026-04-23 04:17 23.67041 45.22063 38921 ft 573 kts 96°
2026-04-23 04:18 23.66327 45.30726 38914 ft 572 kts 96°
2026-04-23 04:18 23.65610 45.39378 38926 ft 572 kts 96°
2026-04-23 04:19 23.64888 45.48022 38907 ft 572 kts 96°
2026-04-23 04:19 23.64162 45.56666 38889 ft 571 kts 96°
2026-04-23 04:20 23.63437 45.65230 38908 ft 571 kts 96°
2026-04-23 04:20 23.62701 45.73859 38906 ft 571 kts 96°
2026-04-23 04:21 23.61961 45.82477 38905 ft 571 kts 96°
2026-04-23 04:21 23.61216 45.91095 38908 ft 571 kts 96°
2026-04-23 04:22 23.60467 45.99714 38915 ft 571 kts 96°
2026-04-23 04:22 23.59712 46.08335 38916 ft 571 kts 96°
2026-04-23 04:23 23.58957 46.16905 38921 ft 571 kts 97°
2026-04-23 04:23 23.58191 46.25539 38930 ft 571 kts 97°
2026-04-23 04:24 23.57422 46.34161 38943 ft 571 kts 97°
2026-04-23 04:24 23.56653 46.42736 38941 ft 572 kts 97°
2026-04-23 04:25 23.55873 46.51371 38951 ft 573 kts 97°
2026-04-23 04:25 23.55086 46.60022 38936 ft 573 kts 97°
2026-04-23 04:26 23.54296 46.68663 38954 ft 573 kts 97°
2026-04-23 04:26 23.53501 46.77305 38957 ft 573 kts 97°
2026-04-23 04:27 23.52699 46.85965 38955 ft 574 kts 97°
2026-04-23 04:27 23.51898 46.94560 38960 ft 574 kts 97°
2026-04-23 04:28 23.50678 47.07558 38945 ft 575 kts 97°
2026-04-23 04:28 23.49858 47.16221 38951 ft 575 kts 97°
2026-04-23 04:29 23.49033 47.24895 38950 ft 575 kts 97°
2026-04-23 04:29 23.48343 47.32111 38948 ft 575 kts 97°
2026-04-23 04:30 23.47373 47.42188 38947 ft 575 kts 97°
2026-04-23 04:30 23.46675 47.49403 38943 ft 575 kts 97°
2026-04-23 04:31 23.45832 47.58067 38941 ft 575 kts 97°
2026-04-23 04:31 23.44985 47.66731 38932 ft 575 kts 97°
2026-04-23 04:32 23.44133 47.75389 38929 ft 575 kts 97°
2026-04-23 04:32 23.43276 47.84052 38921 ft 575 kts 97°
2026-04-23 04:33 23.42421 47.92651 38919 ft 575 kts 97°
2026-04-23 04:33 23.41554 48.01305 38927 ft 575 kts 97°
2026-04-23 04:34 23.40684 48.09959 38916 ft 575 kts 97°
2026-04-23 04:34 23.39807 48.18624 38910 ft 575 kts 97°
2026-04-23 04:35 23.38927 48.27271 38913 ft 574 kts 97°
2026-04-23 04:35 23.38134 48.35915 38912 ft 574 kts 92°
2026-04-23 04:36 23.37808 48.44595 38911 ft 574 kts 92°
2026-04-23 04:36 23.37462 48.53229 38906 ft 574 kts 92°
2026-04-23 04:37 23.37106 48.61906 38908 ft 574 kts 92°
2026-04-23 04:37 23.36744 48.70605 38902 ft 574 kts 92°
2026-04-23 04:38 23.36379 48.79273 38904 ft 574 kts 92°
2026-04-23 04:38 23.36008 48.87960 38895 ft 574 kts 92°
2026-04-23 04:39 23.35633 48.96635 38901 ft 574 kts 92°
2026-04-23 04:39 23.35245 49.05258 38900 ft 574 kts 95°
2026-04-23 04:40 23.34142 49.13841 38896 ft 573 kts 100°
2026-04-23 04:40 23.32910 49.22416 38895 ft 574 kts 99°
2026-04-23 04:41 23.31681 49.31004 38909 ft 574 kts 99°
2026-04-23 04:41 23.30443 49.39591 38905 ft 575 kts 100°
2026-04-23 04:42 23.29195 49.48188 38899 ft 574 kts 100°
2026-04-23 04:42 23.27945 49.56769 38905 ft 574 kts 100°
2026-04-23 04:43 23.26700 49.65279 38909 ft 573 kts 100°
2026-04-23 04:43 23.25443 49.73840 38900 ft 573 kts 100°
2026-04-23 04:44 23.24182 49.82400 38904 ft 573 kts 100°
2026-04-23 04:44 23.22914 49.90964 38898 ft 573 kts 100°
2026-04-23 04:45 23.21644 49.99518 38890 ft 573 kts 100°
2026-04-23 04:45 23.20370 50.08062 38917 ft 572 kts 100°
2026-04-23 04:46 23.19100 50.16547 38907 ft 572 kts 100°
2026-04-23 04:46 23.17818 50.25075 38903 ft 572 kts 100°
2026-04-23 04:47 23.16532 50.33605 38895 ft 571 kts 100°
2026-04-23 04:47 23.15242 50.42126 38909 ft 571 kts 100°
2026-04-23 04:48 23.13947 50.50650 38893 ft 572 kts 101°
2026-04-23 04:48 23.12656 50.59116 38895 ft 571 kts 100°
2026-04-23 04:49 23.11352 50.67632 38894 ft 572 kts 100°
2026-04-23 04:49 23.10041 50.76165 38894 ft 572 kts 100°
2026-04-23 04:50 23.08726 50.84695 38896 ft 572 kts 100°
2026-04-23 04:50 23.07404 50.93234 38898 ft 573 kts 100°
2026-04-23 04:51 23.06080 51.01759 38899 ft 573 kts 100°
2026-04-23 04:51 23.04757 51.10246 38891 ft 573 kts 101°
2026-04-23 04:52 23.03422 51.18774 38905 ft 573 kts 100°
2026-04-23 04:52 23.02083 51.27301 38907 ft 573 kts 100°
2026-04-23 04:53 23.00739 51.35833 38896 ft 573 kts 100°
2026-04-23 04:53 22.99390 51.44359 38898 ft 573 kts 100°
2026-04-23 04:54 22.98037 51.52885 38897 ft 573 kts 100°
2026-04-23 04:54 22.96679 51.61405 38895 ft 574 kts 100°
2026-04-23 04:55 22.95323 51.69886 38892 ft 574 kts 100°
2026-04-23 04:55 22.93957 51.78405 38891 ft 574 kts 100°
2026-04-23 04:56 22.92584 51.86932 38898 ft 574 kts 100°
2026-04-23 04:56 22.91203 51.95479 38892 ft 574 kts 100°
2026-04-23 04:57 22.89820 52.04008 38895 ft 574 kts 101°
2026-04-23 04:57 22.88432 52.12536 38893 ft 574 kts 101°
2026-04-23 04:58 22.87048 52.21017 38889 ft 574 kts 101°
2026-04-23 04:58 22.85651 52.29541 38896 ft 573 kts 100°
2026-04-23 04:59 22.84251 52.38061 38884 ft 573 kts 100°
2026-04-23 04:59 22.82850 52.46579 38880 ft 573 kts 99°
2026-04-23 05:00 22.82279 52.55171 38879 ft 572 kts 90°
2026-04-23 05:00 22.82078 52.63758 38878 ft 572 kts 90°
2026-04-23 05:01 22.81855 52.72378 38885 ft 573 kts 90°
2026-04-23 05:01 22.81624 52.81016 38890 ft 573 kts 90°
2026-04-23 05:02 22.81390 52.89648 38878 ft 573 kts 90°
2026-04-23 05:02 22.81152 52.98267 38883 ft 572 kts 90°
2026-04-23 05:03 22.80909 53.06893 38881 ft 572 kts 90°
2026-04-23 05:03 22.80662 53.15501 38881 ft 571 kts 90°
2026-04-23 05:04 22.80412 53.24057 38874 ft 571 kts 90°
2026-04-23 05:04 22.80156 53.32657 38873 ft 571 kts 90°
2026-04-23 05:05 22.79895 53.41267 38880 ft 571 kts 90°
2026-04-23 05:05 22.79630 53.49864 38878 ft 571 kts 90°
2026-04-23 05:06 22.79360 53.58461 38869 ft 571 kts 90°
2026-04-23 05:06 22.79086 53.67015 38874 ft 571 kts 90°
2026-04-23 05:07 22.79168 53.75603 38869 ft 567 kts 78°
2026-04-23 05:07 22.80048 53.79721 38873 ft 560 kts 66°
2026-04-23 05:07 22.81565 53.83587 38874 ft 551 kts 55°
2026-04-23 05:08 22.83638 53.87034 38871 ft 541 kts 44°
2026-04-23 05:08 22.86087 53.90108 38874 ft 537 kts 41°
2026-04-23 05:08 22.90998 53.96235 38865 ft 538 kts 42°
2026-04-23 05:09 22.95872 54.02333 38874 ft 538 kts 42°
2026-04-23 05:09 23.00779 54.08469 38874 ft 538 kts 42°
2026-04-23 05:10 23.05683 54.14608 38884 ft 538 kts 42°
2026-04-23 05:10 23.10588 54.20755 38897 ft 538 kts 42°
2026-04-23 05:11 23.15488 54.26904 38893 ft 538 kts 42°
2026-04-23 05:11 23.20384 54.33055 38878 ft 538 kts 42°
2026-04-23 05:12 23.25279 54.39212 38881 ft 538 kts 42°
2026-04-23 05:12 23.30166 54.45367 38879 ft 538 kts 42°
2026-04-23 05:13 23.35034 54.51506 38882 ft 538 kts 42°
2026-04-23 05:14 23.42370 54.60770 38878 ft 539 kts 42°
2026-04-23 05:14 23.47260 54.66955 38884 ft 539 kts 42°
2026-04-23 05:15 23.52117 54.73105 38880 ft 539 kts 42°
2026-04-23 05:15 23.57007 54.79303 38876 ft 540 kts 42°
2026-04-23 05:16 23.61903 54.85519 38877 ft 540 kts 42°
2026-04-23 05:16 23.66803 54.91749 38879 ft 540 kts 42°
2026-04-23 05:17 23.71696 54.97977 38878 ft 540 kts 42°
2026-04-23 05:17 23.76582 55.04204 38881 ft 540 kts 42°
2026-04-23 05:18 23.81470 55.10441 38882 ft 540 kts 42°
2026-04-23 05:18 23.86350 55.16677 38881 ft 540 kts 42°
2026-04-23 05:19 23.91195 55.22876 38880 ft 540 kts 42°
2026-04-23 05:19 23.96075 55.29126 38879 ft 540 kts 42°
2026-04-23 05:20 24.00949 55.35378 38876 ft 539 kts 42°
2026-04-23 05:20 24.05816 55.41628 38872 ft 539 kts 42°
2026-04-23 05:21 24.10680 55.47882 38873 ft 539 kts 42°
2026-04-23 05:21 24.15509 55.54100 38883 ft 539 kts 42°
2026-04-23 05:22 24.20369 55.60366 38877 ft 539 kts 42°
2026-04-23 05:22 24.25221 55.66629 38876 ft 539 kts 42°
2026-04-23 05:23 24.30069 55.72895 38880 ft 539 kts 42°
2026-04-23 05:23 24.34920 55.79172 38896 ft 539 kts 43°
2026-04-23 05:24 24.39762 55.85447 38883 ft 539 kts 43°
2026-04-23 05:24 24.43780 55.90660 38891 ft 539 kts 43°
2026-04-23 05:25 24.48614 55.96940 38873 ft 538 kts 43°
2026-04-23 05:25 24.51008 56.00076 38651 ft 533 kts 43°
2026-04-23 05:25 24.53363 56.03185 37842 ft 527 kts 43°
2026-04-23 05:25 24.55728 56.06267 36708 ft 524 kts 40°
2026-04-23 05:26 24.58364 56.08977 35454 ft 515 kts 30°
2026-04-23 05:26 24.61363 56.11072 34075 ft 509 kts 19°
2026-04-23 05:26 24.64633 56.12518 32541 ft 505 kts 13°
2026-04-23 05:26 24.67984 56.13672 31080 ft 506 kts 12°
2026-04-23 05:27 24.71369 56.14755 29592 ft 507 kts 12°
2026-04-23 05:27 24.74725 56.15691 28045 ft 504 kts
2026-04-23 05:27 24.78201 56.15988 26684 ft 496 kts 354°
2026-04-23 05:27 24.81618 56.15755 25494 ft 489 kts 352°
2026-04-23 05:28 24.85000 56.15461 24338 ft 484 kts 352°
2026-04-23 05:28 24.88341 56.15164 23216 ft 480 kts 352°
2026-04-23 05:28 24.91650 56.14863 22042 ft 473 kts 352°
2026-04-23 05:28 24.94903 56.14554 20925 ft 465 kts 354°
2026-04-23 05:29 24.98121 56.14703 20022 ft 461 kts
2026-04-23 05:29 25.01204 56.15591 19253 ft 457 kts 20°
2026-04-23 05:29 25.04030 56.17183 18528 ft 453 kts 34°
2026-04-23 05:29 25.06407 56.19394 17923 ft 443 kts 48°
2026-04-23 05:30 25.08190 56.22057 17283 ft 432 kts 62°
2026-04-23 05:30 25.09314 56.25083 16663 ft 422 kts 77°
2026-04-23 05:30 25.09677 56.28239 16065 ft 411 kts 94°
2026-04-23 05:30 25.09231 56.31315 15672 ft 403 kts 110°
2026-04-23 05:31 25.08033 56.34071 15308 ft 397 kts 127°
2026-04-23 05:31 25.06175 56.36313 14958 ft 401 kts 143°
2026-04-23 05:31 25.03781 56.37915 14602 ft 404 kts 159°
2026-04-23 05:31 25.01091 56.38747 14239 ft 401 kts 174°
2026-04-23 05:32 24.98320 56.38754 13943 ft 398 kts 188°
2026-04-23 05:32 24.95663 56.37941 13718 ft 397 kts 203°
2026-04-23 05:32 24.93302 56.36373 13461 ft 397 kts 218°
2026-04-23 05:32 24.91418 56.34168 13206 ft 397 kts 234°
2026-04-23 05:33 24.90145 56.31516 12962 ft 397 kts 249°
2026-04-23 05:33 24.89563 56.28557 12711 ft 395 kts 265°
2026-04-23 05:33 24.89738 56.25543 12472 ft 396 kts 279°
2026-04-23 05:33 24.90483 56.22627 12230 ft 396 kts 287°
2026-04-23 05:34 24.91438 56.19786 11986 ft 395 kts 289°
2026-04-23 05:34 24.92432 56.16977 11514 ft 391 kts 289°
2026-04-23 05:34 24.93401 56.14206 11153 ft 386 kts 289°
2026-04-23 05:34 24.94344 56.11449 10921 ft 384 kts 288°
2026-04-23 05:35 24.95271 56.08696 10682 ft 382 kts 288°
2026-04-23 05:35 24.96183 56.05956 10435 ft 381 kts 288°
2026-04-23 05:35 24.97091 56.03220 9958 ft 377 kts 288°
2026-04-23 05:35 24.97984 56.00537 9303 ft 368 kts 288°
2026-04-23 05:36 24.98856 55.97914 8333 ft 369 kts 288°
2026-04-23 05:36 24.99733 55.95265 7505 ft 366 kts 288°
2026-04-23 05:36 25.00601 55.92637 6861 ft 364 kts 289°
2026-04-23 05:36 25.01470 55.90018 6121 ft 363 kts 289°
2026-04-23 05:37 25.02342 55.87426 5384 ft 361 kts 289°
2026-04-23 05:37 25.03239 55.84853 4676 ft 361 kts 289°
2026-04-23 05:37 25.04150 55.82281 3971 ft 359 kts 289°
2026-04-23 05:37 25.05054 55.79722 3626 ft 357 kts 289°
2026-04-23 05:38 25.05952 55.77186 3498 ft 345 kts 289°
2026-04-23 05:38 25.06824 55.74825 3485 ft 320 kts 289°
2026-04-23 05:38 25.07635 55.72642 3488 ft 298 kts 289°
2026-04-23 05:38 25.08400 55.70594 3490 ft 281 kts 289°
2026-04-23 05:39 25.09136 55.68635 3482 ft 272 kts 289°
2026-04-23 05:39 25.09855 55.66721 3492 ft 270 kts 289°
2026-04-23 05:39 25.10570 55.64808 3491 ft 270 kts 289°
2026-04-23 05:39 25.11283 55.62888 3492 ft 270 kts 289°
2026-04-23 05:40 25.11965 55.61026 3488 ft 255 kts 289°
2026-04-23 05:40 25.12702 55.59322 3473 ft 237 kts 294°
2026-04-23 05:40 25.13488 55.57781 3480 ft 223 kts 296°
2026-04-23 05:40 25.14266 55.56349 3379 ft 214 kts 297°
2026-04-23 05:41 25.15023 55.54980 3124 ft 204 kts 296°
2026-04-23 05:41 25.15771 55.53624 2846 ft 207 kts 297°
2026-04-23 05:41 25.16525 55.52264 2577 ft 205 kts 297°
2026-04-23 05:41 25.17237 55.50984 2302 ft 185 kts 298°
2026-04-23 05:42 25.17862 55.49856 2104 ft 162 kts 296°
2026-04-23 05:42 25.18425 55.48839 1901 ft 154 kts 298°
2026-04-23 05:42 25.18981 55.47830 1706 ft 151 kts 296°
2026-04-23 05:42 25.19520 55.46849 1514 ft 153 kts 296°
2026-04-23 05:43 25.20076 55.45853 1318 ft 152 kts 297°
2026-04-23 05:43 25.20625 55.44860 1126 ft 151 kts 297°
2026-04-23 05:43 25.21169 55.43878 950 ft 150 kts 300°
2026-04-23 05:43 25.21706 55.42905 751 ft 145 kts 297°
2026-04-23 05:44 25.22233 55.41946 579 ft 149 kts 300°
2026-04-23 05:44 25.22775 55.40979 384 ft 146 kts 301°
2026-04-23 05:44 25.23299 55.40022 203 ft 145 kts 301°
2026-04-23 05:44 25.23817 55.39079 40 ft 144 kts 302°
2026-04-23 05:45 25.24274 55.38254 32 ft 105 kts 303°
2026-04-23 05:45 25.24587 55.37694 27 ft 56 kts 302°
2026-04-23 05:45 25.24720 55.37452 27 ft 32 kts 297°
2026-04-23 05:45 25.24782 55.37234 29 ft 29 kts 275°
2026-04-23 05:46 25.24788 55.37015 27 ft 28 kts 261°
2026-04-23 05:46 25.24657 55.36883 26 ft 27 kts 210°
2026-04-23 05:46 25.24497 55.36777 29 ft 27 kts 213°
2026-04-23 05:46 25.24382 55.36628 29 ft 13 kts 253°
2026-04-23 05:47 25.24401 55.36575 30 ft 9 kts 342°
2026-04-23 05:47 25.24478 55.36566 31 ft 14 kts 357°
2026-04-23 05:47 25.24530 55.36563 27 ft 0 kts 357°